Weather History for 15420 - March, 2010

Change the Weather History Date:

Wednesday, March 10, 2010

  Actual Average Record
Temperature  
Mean Temperature 28 °F -  
Max Temperature 34 °F 55 °F - ()
Min Temperature 22 °F 36 °F - ()
Degree Days  
Heating Degree Days 37    
Moisture  
Dew Point 21 °F    
Average Humidity 72    
Maximum Humidity 93    
Minimum Humidity 39    
Precipitation  
Precipitation 0.00 in 0.05 in - ()
Sea Level Pressure  
Sea Level Pressure 30.41 in    
Wind  
Wind Speed 10 mph ()    
Max Wind Speed 20 mph    
Max Gust Speed -    
Visibility 6.1 miles    
Events Snow    
T = Trace of Precipitation, MM = Missing Value Source: Averaged Metar Reports

Daily Weather History Graph

Daily Weather History Graph

Search for Another Location

Airport or City:

Trip Planner

Search our weather history database for the weather conditions in past years. The results will help you decide how hot, cold, wet, or windy it might be!

Date:

Astronomy

Mar. 10, 2010 Rise Set
Actual Time 6:37 AM EET 6:14 PM EET
Civil Twilight 6:08 AM EET 6:44 PM EET
Nautical Twilight 5:35 AM EET 7:17 PM EET
Astronomical Twilight 5:01 AM EET 7:51 PM EET
Moon 3:53 AM EET (3/10) 1:00 PM EET (3/10)
Length of Visible Light 12h 35m
Length of Day
11h 37m
Waning Crescent, 25% of the Moon is Illuminated
Mar 10
Waning Crescent
Mar 15
New
Mar 23
First Quarter
Mar 30
Full
Apr 6
Last Quarter

Hourly Weather History & Observations

Time (EET) Temp. Windchill Dew Point Humidity Pressure Visibility Wind Dir Wind Speed Gust Speed Precip Events Conditions
12:00 AM 26 °F - 17 °F 56% 30.39 in 6 mi East 6.7 mph - -   Overcast
12:00 AM 26.6 °F 16.8 °F 21.2 °F 80% 30.36 in 6.2 mi ESE 10.4 mph - N/A   Overcast
12:30 AM 26.6 °F 17.5 °F 21.2 °F 80% 30.39 in 6.2 mi ESE 9.2 mph - N/A   Overcast
1:00 AM 26 °F - 17 °F 56% 30.40 in 6 mi ENE 4.5 mph - -   Overcast
1:00 AM 26.6 °F 19.1 °F 21.2 °F 80% 30.39 in 6.2 mi East 6.9 mph - N/A   Overcast
1:30 AM 26.6 °F 19.1 °F 21.2 °F 80% 30.39 in 6.2 mi East 6.9 mph - N/A   Overcast
2:00 AM 26 °F - 16 °F 55% 30.40 in 6 mi NE 4.5 mph - -   Overcast
2:00 AM 26.6 °F 19.1 °F 21.2 °F 80% 30.39 in 6.2 mi East 6.9 mph - N/A   Mostly Cloudy
2:30 AM 24.8 °F 17.9 °F 21.2 °F 86% 30.36 in 6.2 mi East 5.8 mph - N/A   Scattered Clouds
3:00 AM 24 °F - 16 °F 59% 30.40 in 6 mi NE 4.5 mph - -   Scattered Clouds
3:00 AM 23.0 °F 15.8 °F 19.4 °F 86% 30.36 in 6.2 mi ESE 5.8 mph - N/A   Mostly Cloudy
3:30 AM 23.0 °F 15.8 °F 19.4 °F 86% 30.36 in 6.2 mi East 5.8 mph - N/A   Mostly Cloudy
4:00 AM 23 °F - 15 °F 62% 30.40 in 6 mi ENE 4.5 mph - -   Partly Cloudy
4:00 AM 21.2 °F 12.6 °F 17.6 °F 86% 30.36 in 6.2 mi East 6.9 mph - N/A   Scattered Clouds
4:30 AM 23.0 °F 14.7 °F 19.4 °F 86% 30.39 in 6.2 mi East 6.9 mph - N/A   Mostly Cloudy
5:00 AM 23 °F - 16 °F 64% 30.41 in 6 mi ENE 6.7 mph - -   Mostly Cloudy
5:00 AM 24.8 °F 15.3 °F 21.2 °F 86% 30.39 in 6.2 mi East 9.2 mph - N/A   Overcast
5:30 AM 26.6 °F 15.2 °F 21.2 °F 80% 30.39 in 6.2 mi East 13.8 mph - N/A   Overcast
6:00 AM 25 °F - 16 °F 56% 30.44 in 6 mi ENE 8.9 mph - -   Overcast
6:00 AM 26.6 °F 15.7 °F 21.2 °F 80% 30.42 in 6.2 mi East 12.7 mph - N/A   Overcast
6:30 AM 24.8 °F 14.0 °F 19.4 °F 80% 30.42 in 6.2 mi East 11.5 mph - N/A   Mostly Cloudy
7:00 AM 25 °F - 15 °F 53% 30.44 in 6 mi ENE 8.9 mph - -   Overcast
7:00 AM 24.8 °F 12.9 °F 19.4 °F 80% 30.42 in 6.2 mi East 13.8 mph - N/A   Mostly Cloudy
7:30 AM 24.8 °F 13.4 °F 19.4 °F 80% 30.42 in 6.2 mi East 12.7 mph - N/A   Scattered Clouds
8:00 AM 24 °F - 14 °F 53% 30.46 in 6 mi ENE 8.9 mph - -   Overcast
8:00 AM 24.8 °F 12.9 °F 19.4 °F 80% 30.42 in 6.2 mi East 13.8 mph - N/A   Partly Cloudy
8:30 AM 24.8 °F 12.9 °F 19.4 °F 80% 30.45 in 6.2 mi East 13.8 mph - N/A Snow Light Low Drifting Snow
9:00 AM 26 °F - 15 °F 49% 30.49 in 6 mi ENE 11.2 mph - -   Scattered Clouds
9:00 AM 26.6 °F 15.2 °F 19.4 °F 74% 30.48 in - East 13.8 mph - N/A   Clear
9:30 AM 26.6 °F 13.8 °F 21.2 °F 80% 30.48 in - East 17.3 mph - N/A   Clear
10:00 AM 27 °F - 15 °F 47% 30.50 in 6 mi ENE 13.4 mph - -   Overcast
10:00 AM 28.4 °F 16.2 °F 21.2 °F 74% 30.48 in - East 17.3 mph - N/A   Clear
10:30 AM 28.4 °F 16.6 °F 21.2 °F 74% 30.48 in - East 16.1 mph - N/A   Clear
11:00 AM 29 °F - 15 °F 41% 30.50 in 6 mi ENE 11.2 mph - -   Overcast
11:00 AM 28.4 °F 16.2 °F 21.2 °F 74% 30.48 in - East 17.3 mph - N/A   Clear
11:30 AM 28.4 °F 16.2 °F 23.0 °F 80% 30.48 in - East 17.3 mph - N/A   Clear
12:00 PM 29 °F - 15 °F 41% 30.50 in 6 mi ENE 11.2 mph - -   Overcast
12:00 PM 30.2 °F 18.9 °F 23.0 °F 75% 30.48 in - East 16.1 mph - N/A   Clear
12:30 PM 30.2 °F 18.5 °F 23.0 °F 75% 30.45 in - East 17.3 mph - N/A   Clear
1:00 PM 31 °F - 17 °F 42% 30.48 in 6 mi ENE 11.2 mph - -   Overcast
1:00 PM 30.2 °F 17.8 °F 23.0 °F 75% 30.42 in 6.2 mi East 19.6 mph - N/A   Partly Cloudy
1:30 PM 30.2 °F 18.1 °F 24.8 °F 80% 30.42 in 6.2 mi East 18.4 mph - N/A   Partly Cloudy
2:00 PM 31 °F - 16 °F 41% 30.43 in 6 mi NE 13.4 mph - -   Scattered Clouds
2:00 PM 32.0 °F 20.5 °F 24.8 °F 75% 30.39 in 6.2 mi East 18.4 mph - N/A   Partly Cloudy
2:30 PM 32.0 °F 20.5 °F 24.8 °F 75% 30.39 in 6.2 mi East 18.4 mph - N/A   Scattered Clouds
3:00 PM 33 °F - 17 °F 39% 30.42 in 6 mi ENE 11.2 mph - -   Partly Cloudy
3:00 PM 32.0 °F 20.5 °F 26.6 °F 80% 30.39 in 6.2 mi East 18.4 mph - N/A   Scattered Clouds
3:30 PM 33.8 °F 23.5 °F 26.6 °F 75% 30.39 in 6.2 mi East 16.1 mph - N/A   Scattered Clouds
4:00 PM 32 °F - 18 °F 43% 30.45 in 6 mi ENE 13.4 mph - -   Partly Cloudy
4:30 PM 32.0 °F 21.2 °F 26.6 °F 80% 30.42 in 6.2 mi ESE 16.1 mph - N/A   Scattered Clouds
5:00 PM 31 °F - 19 °F 49% 30.44 in 6 mi East 11.2 mph - -   Partly Cloudy
5:00 PM 32.0 °F 22.1 °F 26.6 °F 80% 30.39 in 6.2 mi East 13.8 mph - N/A   Partly Cloudy
5:30 PM 32.0 °F 22.1 °F 26.6 °F 80% 30.39 in 6.2 mi East 13.8 mph - N/A   Scattered Clouds
6:00 PM 30 °F - 19 °F 52% 30.43 in 6 mi ENE 13.4 mph - -   Partly Cloudy
6:00 PM 30.2 °F 19.3 °F 26.6 °F 86% 30.39 in 6.2 mi East 15.0 mph - N/A   Partly Cloudy
6:30 PM 30.2 °F 19.3 °F 26.6 °F 86% 30.39 in 6.2 mi East 15.0 mph - N/A   Scattered Clouds
7:00 PM 30 °F - 20 °F 56% 30.42 in 6 mi ENE 11.2 mph - -   Overcast
7:00 PM 30.2 °F 19.3 °F 26.6 °F 86% 30.39 in 6.2 mi East 15.0 mph - N/A   Partly Cloudy
7:30 PM 30.2 °F 20.8 °F 26.6 °F 86% 30.39 in 6.2 mi East 11.5 mph - N/A   Partly Cloudy
8:00 PM 29 °F - 21 °F 62% 30.41 in 6 mi NE 11.2 mph - -   Overcast
8:00 PM 30.2 °F 19.3 °F 26.6 °F 86% 30.39 in 6.2 mi East 15.0 mph - N/A   Scattered Clouds
8:30 PM 30.2 °F 19.8 °F 26.6 °F 86% 30.39 in 6.2 mi East 13.8 mph - N/A   Overcast
9:00 PM 28 °F - 20 °F 63% 30.41 in 6 mi NE 11.2 mph - -   Overcast
9:00 PM 28.4 °F 17.5 °F 26.6 °F 93% 30.39 in 6.2 mi East 13.8 mph - N/A   Overcast
9:30 PM 28.4 °F 18.5 °F 24.8 °F 86% 30.39 in 6.2 mi East 11.5 mph - N/A   Mostly Cloudy
10:00 PM 28 °F - 20 °F 62% 30.41 in 6 mi NE 11.2 mph - -   Overcast
10:00 PM 28.4 °F 18.0 °F 24.8 °F 86% 30.36 in 6.2 mi ENE 12.7 mph - N/A   Partly Cloudy
10:30 PM 28.4 °F 18.5 °F 26.6 °F 93% 30.36 in - ENE 11.5 mph - N/A   Clear
11:00 PM 28 °F - 20 °F 63% 30.40 in 6 mi NE 8.9 mph - -   Overcast
11:00 PM 28.4 °F 17.5 °F 24.8 °F 86% 30.33 in - ENE 13.8 mph - N/A   Clear
11:30 PM 28.4 °F 17.0 °F 24.8 °F 86% 30.33 in 6.2 mi ENE 15.0 mph - N/A   Mostly Cloudy